| time (UTC) | temp F | wind direction | speed MPH | gust MPH | rain 1hr in | rain 24hr in | rain mn in | humidity % | barometer mb |
| 20260510001904 | 100 | 253 | 0.0 | 3.0 | 0.00 | 0.00 | 0.00 | 14 | 1004.1 |
| 20260510000904 | 100 | 238 | 0.0 | 3.0 | 0.00 | 0.00 | 0.00 | 14 | 1004.1 |
| 20260510000405 | 100 | 261 | 0.0 | 1.0 | 0.00 | 0.00 | 0.00 | 14 | 1004.2 |
| 20260509235904 | 100 | 268 | 0.0 | 3.0 | 0.00 | 0.00 | 0.00 | 14 | 1004.2 |
| 20260509235404 | 100 | 228 | 0.0 | 3.0 | 0.00 | 0.00 | 0.00 | 14 | 1004.3 |
| 20260509234904 | 100 | 218 | 1.0 | 6.0 | 0.00 | 0.00 | 0.00 | 14 | 1004.3 |
| 20260509234405 | 100 | 256 | 0.0 | 1.0 | 0.00 | 0.00 | 0.00 | 14 | 1004.3 |
| 20260509232904 | 100 | 244 | 0.0 | 0.0 | 0.00 | 0.00 | 0.00 | 14 | 1004.3 |
| 20260509232404 | 100 | 245 | 0.0 | 5.0 | 0.00 | 0.00 | 0.00 | 14 | 1004.3 |
| 20260509231905 | 100 | 212 | 1.0 | 12.0 | 0.00 | 0.00 | 0.00 | 14 | 1004.4 |
| 20260509231404 | 100 | 226 | 0.0 | 1.0 | 0.00 | 0.00 | 0.00 | 14 | 1004.3 |
| 20260509230904 | 100 | 227 | 0.0 | 2.0 | 0.00 | 0.00 | 0.00 | 14 | 1004.5 |
| 20260509230404 | 100 | 227 | 0.0 | 1.0 | 0.00 | 0.00 | 0.00 | 14 | 1004.5 |
| 20260509225906 | 100 | 227 | 0.0 | 3.0 | 0.00 | 0.00 | 0.00 | 14 | 1004.5 |
| 20260509225404 | 101 | 262 | 0.0 | 3.0 | 0.00 | 0.00 | 0.00 | 14 | 1004.5 |
| 20260509224404 | 101 | 287 | 0.0 | 1.0 | 0.00 | 0.00 | 0.00 | 14 | 1004.6 |
| 20260509223904 | 101 | 290 | 0.0 | 3.0 | 0.00 | 0.00 | 0.00 | 14 | 1004.8 |
| 20260509223404 | 100 | 266 | 0.0 | 3.0 | 0.00 | 0.00 | 0.00 | 14 | 1004.9 |
| 20260509222904 | 101 | 267 | 0.0 | 3.0 | 0.00 | 0.00 | 0.00 | 14 | 1004.8 |
| 20260509222404 | 101 | 267 | 0.0 | 0.0 | 0.00 | 0.00 | 0.00 | 14 | 1004.9 |
| 20260509221904 | 101 | 276 | 0.0 | 5.0 | 0.00 | 0.00 | 0.00 | 14 | 1005.0 |
| 20260509221404 | 100 | 268 | 0.0 | 5.0 | 0.00 | 0.00 | 0.00 | 15 | 1005.1 |
| 20260509220904 | 100 | 266 | 0.0 | 2.0 | 0.00 | 0.00 | 0.00 | 15 | 1005.3 |
| 20260509220404 | 100 | 262 | 0.0 | 0.0 | 0.00 | 0.00 | 0.00 | 15 | 1005.3 |
| 20260509215905 | 100 | 262 | 0.0 | 3.0 | 0.00 | 0.00 | 0.00 | 15 | 1005.4 |
| 20260509215404 | 100 | 259 | 0.0 | 5.0 | 0.00 | 0.00 | 0.00 | 14 | 1005.6 |
| 20260509214904 | 100 | 270 | 0.0 | 3.0 | 0.00 | 0.00 | 0.00 | 14 | 1005.7 |
| 20260509214404 | 100 | 264 | 0.0 | 2.0 | 0.00 | 0.00 | 0.00 | 15 | 1005.7 |
| 20260509213905 | 99 | 257 | 0.0 | 1.0 | 0.00 | 0.00 | 0.00 | 15 | 1005.8 |
| 20260509213405 | 99 | 252 | 0.0 | 1.0 | 0.00 | 0.00 | 0.00 | 15 | 1005.9 |
| 20260509212904 | 99 | 252 | 0.0 | 3.0 | 0.00 | 0.00 | 0.00 | 15 | 1006.0 |
| 20260509212404 | 99 | 273 | 0.0 | 1.0 | 0.00 | 0.00 | 0.00 | 15 | 1006.0 |
| 20260509211904 | 99 | 273 | 0.0 | 1.0 | 0.00 | 0.00 | 0.00 | 15 | 1006.1 |
| 20260509210904 | 99 | 285 | 0.0 | 0.0 | 0.00 | 0.00 | 0.00 | 15 | 1006.2 |
| 20260509205904 | 99 | 239 | 0.0 | 3.0 | 0.00 | 0.00 | 0.00 | 15 | 1006.3 |
| 20260509205404 | 98 | 271 | 0.0 | 1.0 | 0.00 | 0.00 | 0.00 | 16 | 1006.4 |
| 20260509204404 | 98 | 253 | 0.0 | 3.0 | 0.00 | 0.00 | 0.00 | 15 | 1006.7 |
| 20260509203905 | 98 | 259 | 0.0 | 0.0 | 0.00 | 0.00 | 0.00 | 17 | 1006.6 |
| 20260509203404 | 98 | 259 | 0.0 | 2.0 | 0.00 | 0.00 | 0.00 | 17 | 1006.8 |
| 20260509202904 | 98 | 265 | 0.0 | 1.0 | 0.00 | 0.00 | 0.00 | 17 | 1006.8 |
| 20260509201904 | 97 | 265 | 0.0 | 0.0 | 0.00 | 0.00 | 0.00 | 18 | 1006.9 |
| 20260509201404 | 97 | 265 | 0.0 | 1.0 | 0.00 | 0.00 | 0.00 | 17 | 1007.0 |
| 20260509200904 | 97 | 265 | 0.0 | 0.0 | 0.00 | 0.00 | 0.00 | 17 | 1007.1 |
| 20260509200404 | 97 | 265 | 0.0 | 0.0 | 0.00 | 0.00 | 0.00 | 18 | 1007.2 |
| 20260509195905 | 97 | 265 | 0.0 | 2.0 | 0.00 | 0.00 | 0.00 | 17 | 1007.0 |
| 20260509194905 | 96 | 263 | 0.0 | 2.0 | 0.00 | 0.00 | 0.00 | 18 | 1007.3 |
| 20260509193404 | 96 | 263 | 0.0 | 0.0 | 0.00 | 0.00 | 0.00 | 18 | 1007.5 |
| 20260509192906 | 96 | 263 | 0.0 | 2.0 | 0.00 | 0.00 | 0.00 | 17 | 1007.5 |
| 20260509192404 | 95 | 263 | 0.0 | 1.0 | 0.00 | 0.00 | 0.00 | 18 | 1007.5 |
| 20260509191904 | 95 | 263 | 0.0 | 0.0 | 0.00 | 0.00 | 0.00 | 18 | 1007.7 |
| 20260509191404 | 95 | 263 | 0.0 | 0.0 | 0.00 | 0.00 | 0.00 | 18 | 1007.7 |
| 20260509190404 | 94 | 263 | 0.0 | 0.0 | 0.00 | 0.00 | 0.00 | 18 | 1007.9 |
| 20260509185905 | 94 | 263 | 0.0 | 1.0 | 0.00 | 0.00 | 0.00 | 18 | 1007.9 |
| 20260509184904 | 94 | 263 | 0.0 | 0.0 | 0.00 | 0.00 | 0.00 | 19 | 1007.9 |
| 20260509184404 | 94 | 263 | 0.0 | 0.0 | 0.00 | 0.00 | 0.00 | 18 | 1008.0 |
| 20260509183905 | 94 | 263 | 0.0 | 0.0 | 0.00 | 0.00 | 0.00 | 18 | 1008.1 |
| 20260509183404 | 93 | 263 | 0.0 | 0.0 | 0.00 | 0.00 | 0.00 | 18 | 1008.2 |
| 20260509182904 | 92 | 263 | 0.0 | 3.0 | 0.00 | 0.00 | 0.00 | 19 | 1008.3 |
| 20260509182404 | 92 | 244 | 0.0 | 0.0 | 0.00 | 0.00 | 0.00 | 19 | 1008.4 |
| 20260509181905 | 92 | 244 | 0.0 | 0.0 | 0.00 | 0.00 | 0.00 | 19 | 1008.5 |
| 20260509181407 | 92 | 244 | 0.0 | 0.0 | 0.00 | 0.00 | 0.00 | 19 | 1008.6 |
| 20260509180904 | 92 | 244 | 0.0 | 0.0 | 0.00 | 0.00 | 0.00 | 19 | 1008.6 |
| 20260509180404 | 92 | 244 | 0.0 | 0.0 | 0.00 | 0.00 | 0.00 | 19 | 1008.7 |
| 20260509175918 | 91 | 244 | 0.0 | 0.0 | 0.00 | 0.00 | 0.00 | 19 | 1008.8 |
| 20260509175404 | 91 | 244 | 0.0 | 0.0 | 0.00 | 0.00 | 0.00 | 19 | 1008.8 |
| 20260509174905 | 91 | 244 | 0.0 | 0.0 | 0.00 | 0.00 | 0.00 | 19 | 1008.9 |
| 20260509174404 | 91 | 244 | 0.0 | 0.0 | 0.00 | 0.00 | 0.00 | 19 | 1008.9 |
| 20260509173904 | 91 | 244 | 0.0 | 0.0 | 0.00 | 0.00 | 0.00 | 20 | 1008.8 |
| 20260509173404 | 91 | 244 | 0.0 | 0.0 | 0.00 | 0.00 | 0.00 | 19 | 1008.9 |
| 20260509172904 | 91 | 244 | 0.0 | 0.0 | 0.00 | 0.00 | 0.00 | 20 | 1008.9 |
| 20260509172404 | 90 | 244 | 0.0 | 0.0 | 0.00 | 0.00 | 0.00 | 20 | 1008.9 |
| 20260509171904 | 90 | 244 | 0.0 | 0.0 | 0.00 | 0.00 | 0.00 | 20 | 1009.0 |
| 20260509171404 | 89 | 244 | 0.0 | 0.0 | 0.00 | 0.00 | 0.00 | 20 | 1009.1 |
| 20260509170904 | 89 | 244 | 0.0 | 0.0 | 0.00 | 0.00 | 0.00 | 20 | 1009.1 |
| 20260509170404 | 89 | 244 | 0.0 | 0.0 | 0.00 | 0.00 | 0.00 | 21 | 1009.0 |
| 20260509165904 | 88 | 244 | 0.0 | 0.0 | 0.00 | 0.00 | 0.00 | 21 | 1008.9 |
| 20260509165404 | 88 | 244 | 0.0 | 0.0 | 0.00 | 0.00 | 0.00 | 21 | 1008.9 |
| 20260509164905 | 88 | 244 | 0.0 | 0.0 | 0.00 | 0.00 | 0.00 | 21 | 1008.9 |
| 20260509164404 | 88 | 244 | 0.0 | 0.0 | 0.00 | 0.00 | 0.00 | 21 | 1008.8 |
| 20260509163904 | 88 | 244 | 0.0 | 0.0 | 0.00 | 0.00 | 0.00 | 22 | 1008.8 |
| 20260509163404 | 88 | 244 | 0.0 | 0.0 | 0.00 | 0.00 | 0.00 | 21 | 1008.8 |
| 20260509162904 | 88 | 244 | 0.0 | 0.0 | 0.00 | 0.00 | 0.00 | 22 | 1008.8 |
| 20260509161904 | 88 | 244 | 0.0 | 0.0 | 0.00 | 0.00 | 0.00 | 21 | 1008.7 |
| 20260509161404 | 87 | 244 | 0.0 | 0.0 | 0.00 | 0.00 | 0.00 | 22 | 1008.9 |
| 20260509160905 | 87 | 244 | 0.0 | 0.0 | 0.00 | 0.00 | 0.00 | 21 | 1008.9 |
| 20260509160403 | 87 | 244 | 0.0 | 1.0 | 0.00 | 0.00 | 0.00 | 22 | 1008.9 |
| 20260509155904 | 87 | 244 | 0.0 | 0.0 | 0.00 | 0.00 | 0.00 | 22 | 1008.8 |
| 20260509155405 | 87 | 244 | 0.0 | 0.0 | 0.00 | 0.00 | 0.00 | 23 | 1008.8 |
| 20260509154404 | 86 | 244 | 0.0 | 0.0 | 0.00 | 0.00 | 0.00 | 22 | 1008.8 |
| 20260509153904 | 86 | 244 | 0.0 | 0.0 | 0.00 | 0.00 | 0.00 | 23 | 1008.8 |
| 20260509153405 | 85 | 244 | 0.0 | 0.0 | 0.00 | 0.00 | 0.00 | 23 | 1008.8 |
| 20260509152904 | 85 | 244 | 0.0 | 0.0 | 0.00 | 0.00 | 0.00 | 23 | 1008.8 |
| 20260509152404 | 85 | 244 | 0.0 | 0.0 | 0.00 | 0.00 | 0.00 | 23 | 1008.8 |
| 20260509151905 | 85 | 244 | 0.0 | 0.0 | 0.00 | 0.00 | 0.00 | 23 | 1008.7 |
| 20260509151403 | 84 | 244 | 0.0 | 0.0 | 0.00 | 0.00 | 0.00 | 23 | 1008.8 |
| 20260509150904 | 84 | 244 | 0.0 | 0.0 | 0.00 | 0.00 | 0.00 | 24 | 1008.8 |
| 20260509150404 | 84 | 244 | 0.0 | 0.0 | 0.00 | 0.00 | 0.00 | 24 | 1008.9 |
| 20260509145404 | 84 | 244 | 0.0 | 0.0 | 0.00 | 0.00 | 0.00 | 26 | 1008.5 |
| 20260509144904 | 83 | 244 | 0.0 | 0.0 | 0.00 | 0.00 | 0.00 | 25 | 1008.6 |
| 20260509144404 | 82 | 244 | 0.0 | 0.0 | 0.00 | 0.00 | 0.00 | 27 | 1008.6 |
| 20260509143904 | 82 | 244 | 0.0 | 0.0 | 0.00 | 0.00 | 0.00 | 27 | 1008.5 |
| 20260509143404 | 81 | 244 | 0.0 | 0.0 | 0.00 | 0.00 | 0.00 | 29 | 1008.6 |
| 20260509142404 | 80 | 244 | 0.0 | 0.0 | 0.00 | 0.00 | 0.00 | 31 | 1008.6 |
| 20260509141905 | 78 | 244 | 0.0 | 0.0 | 0.00 | 0.00 | 0.00 | 31 | 1008.7 |
| 20260509141404 | 77 | 244 | 0.0 | 0.0 | 0.00 | 0.00 | 0.00 | 31 | 1008.8 |
| 20260509140904 | 76 | 244 | 0.0 | 0.0 | 0.00 | 0.00 | 0.00 | 32 | 1008.7 |
| 20260509135904 | 75 | 244 | 0.0 | 0.0 | 0.00 | 0.00 | 0.00 | 33 | 1008.6 |
| 20260509135404 | 74 | 244 | 0.0 | 0.0 | 0.00 | 0.00 | 0.00 | 34 | 1008.6 |
| 20260509134905 | 73 | 244 | 0.0 | 0.0 | 0.00 | 0.00 | 0.00 | 34 | 1008.5 |
| 20260509134403 | 72 | 244 | 0.0 | 0.0 | 0.00 | 0.00 | 0.00 | 34 | 1008.5 |
| 20260509133904 | 72 | 244 | 0.0 | 0.0 | 0.00 | 0.00 | 0.00 | 35 | 1008.5 |
| 20260509133404 | 71 | 244 | 0.0 | 0.0 | 0.00 | 0.00 | 0.00 | 35 | 1008.4 |
| 20260509132904 | 71 | 244 | 0.0 | 0.0 | 0.00 | 0.00 | 0.00 | 35 | 1008.4 |
| 20260509132404 | 70 | 244 | 0.0 | 0.0 | 0.00 | 0.00 | 0.00 | 35 | 1008.5 |
| 20260509131404 | 69 | 244 | 0.0 | 0.0 | 0.00 | 0.00 | 0.00 | 35 | 1008.4 |
| 20260509130904 | 68 | 244 | 0.0 | 0.0 | 0.00 | 0.00 | 0.00 | 35 | 1008.4 |
| 20260509130404 | 68 | 244 | 0.0 | 0.0 | 0.00 | 0.00 | 0.00 | 35 | 1008.4 |
| 20260509125903 | 68 | 244 | 0.0 | 0.0 | 0.00 | 0.00 | 0.00 | 35 | 1008.2 |
| 20260509125404 | 67 | 244 | 0.0 | 0.0 | 0.00 | 0.00 | 0.00 | 35 | 1008.2 |
| 20260509124904 | 67 | 244 | 0.0 | 0.0 | 0.00 | 0.00 | 0.00 | 35 | 1008.1 |
| 20260509124404 | 67 | 244 | 0.0 | 0.0 | 0.00 | 0.00 | 0.00 | 36 | 1008.0 |
| 20260509123904 | 67 | 244 | 0.0 | 0.0 | 0.00 | 0.00 | 0.00 | 36 | 1007.9 |
| 20260509123403 | 67 | 244 | 0.0 | 0.0 | 0.00 | 0.00 | 0.00 | 35 | 1007.8 |
| 20260509122904 | 67 | 243 | 0.0 | 0.0 | 0.00 | 0.00 | 0.00 | 35 | 1007.8 |
| 20260509122404 | 67 | 244 | 0.0 | 0.0 | 0.00 | 0.00 | 0.00 | 35 | 1007.7 |
| 20260509121904 | 67 | 244 | 0.0 | 0.0 | 0.00 | 0.00 | 0.00 | 35 | 1007.6 |
| 20260509121403 | 68 | 243 | 0.0 | 0.0 | 0.00 | 0.00 | 0.00 | 35 | 1007.5 |
| 20260509120404 | 68 | 244 | 0.0 | 0.0 | 0.00 | 0.00 | 0.00 | 35 | 1007.4 |
| 20260509115904 | 68 | 244 | 0.0 | 0.0 | 0.00 | 0.00 | 0.00 | 34 | 1007.3 |
| 20260509115404 | 68 | 243 | 0.0 | 0.0 | 0.00 | 0.00 | 0.00 | 34 | 1007.4 |
| 20260509114904 | 68 | 244 | 0.0 | 0.0 | 0.00 | 0.00 | 0.00 | 34 | 1007.4 |
| 20260509114404 | 68 | 244 | 0.0 | 0.0 | 0.00 | 0.00 | 0.00 | 33 | 1007.4 |
| 20260509113904 | 68 | 244 | 0.0 | 0.0 | 0.00 | 0.00 | 0.00 | 33 | 1007.4 |
| 20260509112404 | 68 | 244 | 0.0 | 0.0 | 0.00 | 0.00 | 0.00 | 33 | 1007.4 |
| 20260509111904 | 68 | 244 | 0.0 | 0.0 | 0.00 | 0.00 | 0.00 | 33 | 1007.2 |
| 20260509111404 | 68 | 244 | 0.0 | 0.0 | 0.00 | 0.00 | 0.00 | 33 | 1007.2 |
| 20260509110905 | 68 | 244 | 0.0 | 0.0 | 0.00 | 0.00 | 0.00 | 33 | 1007.1 |
| 20260509110404 | 69 | 244 | 0.0 | 0.0 | 0.00 | 0.00 | 0.00 | 33 | 1007.0 |
| 20260509105904 | 69 | 244 | 0.0 | 0.0 | 0.00 | 0.00 | 0.00 | 33 | 1007.0 |
| 20260509105404 | 69 | 244 | 0.0 | 0.0 | 0.00 | 0.00 | 0.00 | 33 | 1006.9 |
| 20260509104905 | 69 | 244 | 0.0 | 0.0 | 0.00 | 0.00 | 0.00 | 33 | 1006.9 |
| 20260509103403 | 70 | 244 | 0.0 | 0.0 | 0.00 | 0.00 | 0.00 | 32 | 1007.0 |
| 20260509102904 | 70 | 244 | 0.0 | 0.0 | 0.00 | 0.00 | 0.00 | 31 | 1006.9 |
| 20260509101904 | 70 | 244 | 0.0 | 0.0 | 0.00 | 0.00 | 0.00 | 31 | 1007.0 |
| 20260509101404 | 70 | 244 | 0.0 | 0.0 | 0.00 | 0.00 | 0.00 | 31 | 1007.0 |
| 20260509100404 | 71 | 243 | 0.0 | 0.0 | 0.00 | 0.00 | 0.00 | 30 | 1006.9 |
| 20260509095903 | 71 | 243 | 0.0 | 0.0 | 0.00 | 0.00 | 0.00 | 30 | 1006.9 |
| 20260509095404 | 71 | 244 | 0.0 | 0.0 | 0.00 | 0.00 | 0.00 | 30 | 1006.9 |
| 20260509094904 | 71 | 244 | 0.0 | 0.0 | 0.00 | 0.00 | 0.00 | 30 | 1006.9 |
| 20260509093904 | 72 | 244 | 0.0 | 0.0 | 0.00 | 0.00 | 0.00 | 29 | 1006.9 |
| 20260509093404 | 92 | 244 | 0.0 | 0.0 | 0.00 | 0.00 | 0.00 | 19 | 1005.0 |
| 20260509065903 | 92 | 242 | 0.0 | 0.0 | 0.00 | 0.00 | 0.00 | 19 | 1005.0 |
| 20260509064903 | 92 | 244 | 0.0 | 0.0 | 0.00 | 0.00 | 0.00 | 19 | 1005.0 |
| 20260509063903 | 92 | 244 | 0.0 | 0.0 | 0.00 | 0.00 | 0.00 | 19 | 1005.0 |
| 20260509063404 | 92 | 244 | 0.0 | 0.0 | 0.00 | 0.00 | 0.00 | 19 | 1005.0 |
| 20260509062904 | 92 | 246 | 0.0 | 0.0 | 0.00 | 0.00 | 0.00 | 19 | 1005.0 |
| 20260509061906 | 92 | 244 | 0.0 | 0.0 | 0.00 | 0.00 | 0.00 | 19 | 1005.0 |
| 20260509061405 | 92 | 245 | 0.0 | 0.0 | 0.00 | 0.00 | 0.00 | 19 | 1005.0 |
| 20260509060905 | 92 | 245 | 0.0 | 0.0 | 0.00 | 0.00 | 0.00 | 19 | 1005.0 |
| 20260509060405 | 92 | 241 | 0.0 | 0.0 | 0.00 | 0.00 | 0.00 | 19 | 1005.0 |
| 20260509055905 | 92 | 242 | 0.0 | 0.0 | 0.00 | 0.00 | 0.00 | 19 | 1005.0 |
| 20260509055404 | 92 | 244 | 0.0 | 0.0 | 0.00 | 0.00 | 0.00 | 19 | 1005.0 |
| 20260509054905 | 92 | 245 | 0.0 | 0.0 | 0.00 | 0.00 | 0.00 | 19 | 1005.0 |
| 20260509054405 | 92 | 242 | 0.0 | 0.0 | 0.00 | 0.00 | 0.00 | 19 | 1005.0 |
| 20260509053405 | 92 | 246 | 0.0 | 0.0 | 0.00 | 0.00 | 0.00 | 19 | 1005.0 |
| 20260509052404 | 92 | 242 | 0.0 | 0.0 | 0.00 | 0.00 | 0.00 | 19 | 1005.0 |
| 20260509051905 | 92 | 244 | 0.0 | 0.0 | 0.00 | 0.00 | 0.00 | 19 | 1005.0 |
| 20260509051406 | 92 | 245 | 0.0 | 0.0 | 0.00 | 0.00 | 0.00 | 19 | 1005.0 |
| 20260509050905 | 92 | 244 | 0.0 | 0.0 | 0.00 | 0.00 | 0.00 | 19 | 1005.0 |
| 20260509045405 | 92 | 245 | 0.0 | 0.0 | 0.00 | 0.00 | 0.00 | 19 | 1005.0 |
| 20260509044904 | 92 | 242 | 0.0 | 0.0 | 0.00 | 0.00 | 0.00 | 19 | 1005.0 |
| 20260509044405 | 92 | 245 | 0.0 | 0.0 | 0.00 | 0.00 | 0.00 | 19 | 1005.0 |
| 20260509043905 | 92 | 243 | 0.0 | 0.0 | 0.00 | 0.00 | 0.00 | 19 | 1005.0 |
| 20260509043404 | 92 | 245 | 0.0 | 0.0 | 0.00 | 0.00 | 0.00 | 19 | 1005.0 |
| 20260509042905 | 92 | 243 | 0.0 | 0.0 | 0.00 | 0.00 | 0.00 | 19 | 1005.0 |
| 20260509042405 | 92 | 245 | 0.0 | 0.0 | 0.00 | 0.00 | 0.00 | 19 | 1005.0 |
| 20260509041405 | 92 | 242 | 0.0 | 0.0 | 0.00 | 0.00 | 0.00 | 19 | 1005.0 |
| 20260509040904 | 92 | 242 | 0.0 | 0.0 | 0.00 | 0.00 | 0.00 | 19 | 1005.0 |
| 20260509040405 | 92 | 244 | 0.0 | 0.0 | 0.00 | 0.00 | 0.00 | 19 | 1005.0 |
| 20260509035905 | 92 | 245 | 0.0 | 0.0 | 0.00 | 0.00 | 0.00 | 19 | 1005.0 |
| 20260509035405 | 92 | 245 | 0.0 | 0.0 | 0.00 | 0.00 | 0.00 | 19 | 1005.0 |
| 20260509034405 | 92 | 245 | 0.0 | 0.0 | 0.00 | 0.00 | 0.00 | 19 | 1005.0 |
| 20260509032905 | 92 | 244 | 0.0 | 0.0 | 0.00 | 0.00 | 0.00 | 19 | 1005.0 |
| 20260509032405 | 92 | 243 | 0.0 | 0.0 | 0.00 | 0.00 | 0.00 | 19 | 1005.0 |
| 20260509031405 | 92 | 245 | 0.0 | 0.0 | 0.00 | 0.00 | 0.00 | 19 | 1005.0 |
| 20260509030905 | 92 | 243 | 0.0 | 0.0 | 0.00 | 0.00 | 0.00 | 19 | 1005.0 |
| 20260509030405 | 92 | 244 | 0.0 | 0.0 | 0.00 | 0.00 | 0.00 | 19 | 1005.0 |
| 20260509024405 | 94 | 245 | 0.0 | 0.0 | 0.00 | 0.00 | 0.00 | 18 | 1004.6 |
| 20260509023905 | 94 | 244 | 0.0 | 0.0 | 0.00 | 0.00 | 0.00 | 18 | 1004.6 |
| 20260509023405 | 94 | 244 | 0.0 | 0.0 | 0.00 | 0.00 | 0.00 | 17 | 1004.5 |
| 20260509022405 | 94 | 244 | 0.0 | 0.0 | 0.00 | 0.00 | 0.00 | 16 | 1004.5 |
| 20260509021905 | 95 | 244 | 0.0 | 0.0 | 0.00 | 0.00 | 0.00 | 17 | 1004.4 |
| 20260509021404 | 95 | 244 | 0.0 | 0.0 | 0.00 | 0.00 | 0.00 | 17 | 1004.3 |
| 20260509020904 | 95 | 244 | 0.0 | 0.0 | 0.00 | 0.00 | 0.00 | 17 | 1004.3 |
| 20260509020405 | 95 | 242 | 0.0 | 0.0 | 0.00 | 0.00 | 0.00 | 17 | 1004.5 |
| 20260509015906 | 95 | 244 | 0.0 | 1.0 | 0.00 | 0.00 | 0.00 | 17 | 1004.5 |
| 20260509015404 | 96 | 244 | 0.0 | 1.0 | 0.00 | 0.00 | 0.00 | 16 | 1004.5 |
| 20260509014906 | 96 | 258 | 0.0 | 3.0 | 0.00 | 0.00 | 0.00 | 16 | 1004.5 |
| 20260509013405 | 97 | 257 | 0.0 | 2.0 | 0.00 | 0.00 | 0.00 | 16 | 1004.3 |
| 20260509012904 | 97 | 218 | 0.0 | 1.0 | 0.00 | 0.00 | 0.00 | 16 | 1004.3 |
| 20260509012405 | 97 | 219 | 0.0 | 0.0 | 0.00 | 0.00 | 0.00 | 16 | 1004.3 |
| 20260509011905 | 97 | 219 | 0.0 | 3.0 | 0.00 | 0.00 | 0.00 | 16 | 1004.4 |
| 20260509010905 | 97 | 221 | 0.0 | 5.0 | 0.00 | 0.00 | 0.00 | 16 | 1004.4 |
| 20260509010404 | 98 | 250 | 0.0 | 5.0 | 0.00 | 0.00 | 0.00 | 16 | 1004.4 |
| 20260509005906 | 98 | 258 | 0.0 | 0.0 | 0.00 | 0.00 | 0.00 | 16 | 1004.6 |
| 20260509005404 | 98 | 258 | 0.0 | 2.0 | 0.00 | 0.00 | 0.00 | 16 | 1004.7 |
| 20260509004905 | 98 | 258 | 1.0 | 6.0 | 0.00 | 0.00 | 0.00 | 16 | 1004.7 |
| 20260509004404 | 98 | 242 | 0.0 | 0.0 | 0.00 | 0.00 | 0.00 | 16 | 1004.7 |
| 20260509003905 | 98 | 241 | 0.0 | 3.0 | 0.00 | 0.00 | 0.00 | 16 | 1004.7 |
| 20260509003405 | 98 | 257 | 0.0 | 1.0 | 0.00 | 0.00 | 0.00 | 16 | 1004.7 |
| 20260509002404 | 98 | 254 | 0.0 | 1.0 | 0.00 | 0.00 | 0.00 | 16 | 1004.8 |